Hickory, NC

5:35 AM EST on December 14, 2017 (GMT -0500)
Hickory Regional

Weather History for KHKY - June, 2013

Change the Weather History Date:

Thursday, June 27, 2013

  Actual Average Record
Temperature  
Mean Temperature 77 °F -  
Max Temperature 87 °F 85 °F 104 °F (1954)
Min Temperature 68 °F 65 °F 53 °F (1979)
Cooling Degree Days 12    
Growing Degree Days 27 (Base 50)    
Moisture  
Dew Point 68 °F    
Average Humidity 84    
Maximum Humidity 100    
Minimum Humidity 59    
Precipitation  
Precipitation 0.00 in - - ()
Sea Level Pressure  
Sea Level Pressure 29.84 in    
Wind  
Wind Speed 2 mph (SW)    
Max Wind Speed 10 mph    
Max Gust Speed -    
Visibility 7 miles    
Events Fog , Rain    
Averages and records for this station are not official NWS values.
T = Trace of Precipitation, MM = Missing Value Source: NWS Daily Summary

Daily Weather History Graph

Daily Weather History Graph

Search for Another Location

Airport or City:

Trip Planner

Search our weather history database for the weather conditions in past years. The results will help you decide how hot, cold, wet, or windy it might be!

Date:

Astronomy

Jun. 27, 2013 Rise Set
Actual Time 6:11 AM EDT 8:45 PM EDT
Civil Twilight 5:41 AM EDT 9:15 PM EDT
Nautical Twilight 5:04 AM EDT 9:52 PM EDT
Astronomical Twilight 4:22 AM EDT 10:34 PM EDT
Moon 11:53 PM EDT (6/27) 11:01 AM EDT (6/27)
Length of Visible Light 15h 34m
Length of Day
14h 33m
Waning Gibbous, 76% of the Moon is Illuminated
Jun 27
Waning Gibbous
Jun 30
Last Quarter
Jul 8
New
Jul 15
First Quarter
Jul 22
Full

Hourly Weather History & Observations

Time (EDT) Temp. Heat Index Dew Point Humidity Pressure Visibility Wind Dir Wind Speed Gust Speed Precip Events Conditions
12:08 AM 69.8 °F - 66.2 °F 88% 29.98 in 10.0 mi Calm Calm - N/A   Mostly Cloudy
12:53 AM 70.0 °F - 66.9 °F 90% 29.89 in 10.0 mi Calm Calm - N/A   Scattered Clouds
1:19 AM 69.8 °F - 66.2 °F 88% 29.96 in 10.0 mi Calm Calm - N/A   Mostly Cloudy
1:49 AM 69.8 °F - 66.2 °F 88% 29.95 in 9.0 mi Calm Calm - N/A   Overcast
1:53 AM 69.1 °F - 66.9 °F 93% 29.88 in 9.0 mi Calm Calm - N/A   Overcast
2:30 AM 69.8 °F - 66.2 °F 88% 29.93 in 9.0 mi Calm Calm - N/A   Overcast
2:53 AM 71.1 °F - 69.1 °F 93% 29.85 in 6.0 mi SSW 3.5 mph - N/A   Overcast
3:16 AM 69.8 °F - 69.8 °F 100% 29.90 in 1.8 mi South 4.6 mph - N/A   Overcast
3:33 AM 69.8 °F - 68.0 °F 94% 29.89 in 1.0 mi South 3.5 mph - N/A   Mist
3:48 AM 69.8 °F - 68.0 °F 94% 29.89 in 3.0 mi Calm Calm - N/A   Overcast
3:53 AM 69.1 °F - 68.0 °F 96% 29.82 in 2.5 mi Calm Calm - N/A   Overcast
4:02 AM 69.8 °F - 68.0 °F 94% 29.89 in 1.5 mi Calm Calm - N/A   Overcast
4:10 AM 69.8 °F - 68.0 °F 94% 29.89 in 3.0 mi Calm Calm - N/A   Overcast
4:23 AM 69.8 °F - 66.2 °F 88% 29.88 in 2.0 mi ENE 3.5 mph - N/A   Scattered Clouds
4:28 AM 68.0 °F - 66.2 °F 94% 29.88 in 1.0 mi Calm Calm - N/A   Mist
4:37 AM 68.0 °F - 66.2 °F 94% 29.88 in 0.8 mi Calm Calm - N/A   Mist
4:45 AM 68.0 °F - 66.2 °F 94% 29.88 in 1.2 mi Calm Calm - N/A   Scattered Clouds
4:48 AM 68.0 °F - 66.2 °F 94% 29.88 in 3.0 mi Calm Calm - N/A   Partly Cloudy
4:53 AM 68.0 °F - 66.9 °F 96% 29.83 in 5.0 mi Calm Calm - N/A   Scattered Clouds
5:31 AM 68.0 °F - 66.2 °F 94% 29.90 in 1.5 mi West 4.6 mph - N/A   Overcast
5:36 AM 68.0 °F - 66.2 °F 94% 29.89 in 0.5 mi Calm Calm - N/A Fog Fog
5:44 AM 68.0 °F - 66.2 °F 94% 29.89 in 0.8 mi WSW 3.5 mph - N/A   Overcast
5:47 AM 68.0 °F - 66.2 °F 94% 29.89 in 2.0 mi SSW 4.6 mph - 0.00 in Rain Light Rain
5:51 AM 68.0 °F - 66.2 °F 94% 29.88 in 5.0 mi SW 4.6 mph - 0.00 in Rain Light Rain
5:53 AM 68.0 °F - 66.0 °F 93% 29.82 in 6.0 mi SW 4.6 mph - 0.00 in Rain Light Rain
6:53 AM 70.0 °F - 66.9 °F 90% 29.81 in 10.0 mi SW 3.5 mph - N/A   Partly Cloudy
7:53 AM 71.1 °F - 68.0 °F 90% 29.81 in 10.0 mi Calm Calm - N/A   Scattered Clouds
8:53 AM 73.9 °F - 66.9 °F 79% 29.83 in 10.0 mi SSW 3.5 mph - 0.00 in   Clear
9:53 AM 73.9 °F - 64.9 °F 73% 29.82 in 10.0 mi Calm Calm - N/A   Overcast
10:53 AM 75.0 °F - 66.0 °F 73% 29.82 in 10.0 mi SSW 5.8 mph - 0.00 in   Clear
11:53 AM 77.0 °F - 66.0 °F 69% 29.82 in 10.0 mi Variable 4.6 mph - N/A   Clear
12:53 PM 80.1 °F 82.9 °F 69.1 °F 69% 29.80 in 10.0 mi SSW 9.2 mph - N/A   Scattered Clouds
1:53 PM 82.9 °F 85.8 °F 68.0 °F 60% 29.79 in 10.0 mi SSW 9.2 mph - N/A   Clear
2:53 PM 84.0 °F 88.4 °F 70.0 °F 63% 29.77 in 10.0 mi SW 9.2 mph - N/A   Scattered Clouds
3:53 PM 86.0 °F 90.7 °F 70.0 °F 59% 29.73 in 10.0 mi SW 10.4 mph - N/A   Scattered Clouds
4:53 PM 84.0 °F 88.4 °F 70.0 °F 63% 29.72 in 10.0 mi SSW 8.1 mph - N/A   Partly Cloudy
5:53 PM 86.0 °F 90.7 °F 70.0 °F 59% 29.71 in 10.0 mi West 10.4 mph - N/A   Clear
6:53 PM 84.0 °F 87.8 °F 69.1 °F 61% 29.71 in 10.0 mi WNW 6.9 mph - N/A   Clear
7:53 PM 82.9 °F 86.5 °F 69.1 °F 63% 29.71 in 10.0 mi WSW 5.8 mph - N/A   Clear
8:53 PM 79.0 °F - 69.1 °F 72% 29.74 in 10.0 mi Calm Calm - N/A   Partly Cloudy
9:53 PM 77.0 °F - 71.1 °F 82% 29.75 in 10.0 mi Calm Calm - N/A   Clear
10:53 PM 75.9 °F - 71.1 °F 85% 29.75 in 10.0 mi Calm Calm - 0.00 in Rain Light Rain
11:53 PM 75.0 °F - 70.0 °F 84% 29.75 in 10.0 mi Calm Calm - 0.00 in   Partly Cloudy